[[{"header":{"parameterUnit":"m.s-1","parameterCategory":1,"la1":30.2991,"la2":30.254,"lo1":-89.0895,"lo2":-89.0444,"dy":0.0017,"dx":0.0017,"nx":28,"ny":28,"refTime":"2024-05-27T03:00:00:Z","depth":0,"parameterNumber":2,"parameterNumberName":"U-component_of_WINDS"},"data":[0,0,0,0,0,0,0,0,0,0,0,0,0,0,0,0,0,0,0,0,0,0,0,0,0,0,0,0,0,0,0,0,0,0,0,0,0,0,0,0,0,0,0,0,0,0,0,0,0,0,0,0,0,0,0,0,0,0,2.3863,2.3864,0,2.3943,2.3944,2.3945,2.3849,2.3846,2.3842,2.3839,2.3926,2.3932,2.3937,0,0,0,0,0,0,0,0,0,0,0,0,0,2.3634,2.3639,2.3863,2.3864,2.3865,2.3943,2.3944,2.3945,2.385,2.3846,2.3841,2.3837,2.3924,2.3931,2.3938,0,0,0,0,0,0,0,0,0,0,0,0,0,2.3726,2.3641,2.3863,2.3827,2.3825,2.3942,2.3944,2.3945,2.3851,2.3846,2.384,2.3835,2.3922,2.393,2.3939,2.4097,0,0,2.3964,2.3968,0,0,0,0,0,0,0,0,2.3721,2.3735,2.3831,2.383,2.3827,2.388,2.3895,2.3996,2.3852,2.3841,2.3839,2.3833,2.3916,2.3924,2.3951,2.4101,2.4105,2.3965,2.397,2.3974,2.3976,0,0,0,0,0,0,0,2.3715,2.3731,2.3895,2.3833,2.3831,2.3809,2.3816,2.3914,2.3908,2.3842,2.3835,2.3845,2.3913,2.3943,2.3952,2.4106,2.3965,2.3972,2.3977,2.3981,2.439,2.4396,0,0,0,0,0,0,2.3712,2.3726,2.3892,2.3897,2.376,2.3817,2.3825,2.3869,2.3906,2.3906,2.385,2.3841,2.3931,2.3943,2.3955,2.4143,2.3974,2.3982,2.3986,2.4384,2.4391,2.4398,0,0,0,0,0,0,2.3707,2.3728,2.3889,2.381,2.3829,2.3827,2.3877,2.3873,2.3903,2.3912,2.3911,2.3881,2.3928,2.3943,2.4062,2.4144,2.3985,2.3993,2.4377,2.4386,2.4394,2.452,0,0,0,0,0,0,2.3701,2.3726,2.3786,2.3812,2.3833,2.3994,2.3882,2.3879,2.3917,2.3906,2.3941,2.3942,2.3925,2.405,2.407,2.4153,2.4,2.437,2.4381,2.4392,2.4508,2.4531,2.4551,0,0,0,0,0,2.3693,2.3819,2.3789,2.381,2.3907,2.3998,2.4011,2.3987,2.3924,2.3984,2.399,2.3941,2.4132,2.4063,2.4085,2.4172,2.4365,2.4378,2.4391,2.4498,2.4527,2.4551,0,0,0,0,0,0,2.3805,2.3822,2.3789,2.3926,2.3961,2.3982,2.4057,2.4018,2.4073,2.4061,2.403,2.4039,2.4165,2.418,2.4103,2.4327,2.4238,2.4256,2.4312,2.4339,2.4361,2.4355,2.4007,0,0,0,0,0,2.3845,2.3916,2.3928,2.4048,2.4067,2.406,2.4099,2.4077,2.4113,2.4128,2.4142,2.4181,2.4249,2.4295,2.4359,2.451,2.4516,2.458,2.4602,2.462,2.4636,2.4717,2.4745,2.4441,2.444,2.444,0,0,2.393,2.3948,2.3995,2.4071,2.4096,2.4172,2.4073,2.4158,2.4214,2.4141,2.4253,2.4266,2.4307,2.4442,2.4502,2.4458,2.4721,2.4636,2.465,2.4657,2.4733,2.4762,2.4788,2.4449,2.4448,2.4446,0,0,2.4122,2.4143,2.4245,2.4271,2.4309,2.4303,2.4328,2.4354,2.4359,2.4471,2.4418,2.4485,2.4604,2.4635,2.4666,2.487,2.4827,2.4892,2.5006,2.5085,2.5109,2.513,2.5203,2.5229,2.4908,2.4909,2.4909,0,2.4223,2.4333,2.4303,2.4391,2.4427,2.4362,2.4466,2.4494,2.4552,2.4578,2.4528,2.4675,2.4698,2.4839,2.4889,2.4916,2.4944,2.4888,2.5107,2.5128,2.5148,2.5217,2.5244,2.4916,2.4915,2.4914,2.4914,0,2.4456,2.4533,2.4612,2.4666,2.4711,2.4807,2.4792,2.4841,2.4816,2.4815,2.493,2.4955,2.5023,2.5055,2.5032,2.5194,2.5165,2.5112,2.5022,2.5185,2.5249,2.5276,2.4927,2.4924,2.4922,2.492,0,0,2.4721,2.4757,2.4786,2.481,2.4847,2.4907,2.5001,2.5064,2.5107,2.5149,2.5227,2.5329,2.5279,2.5315,2.5295,2.5364,2.5524,2.5302,2.5303,2.5343,2.5704,2.5744,2.5775,2.5496,2.5501,2.5505,2.5701,0,2.4914,2.5073,2.5048,2.5203,2.5274,2.5214,2.5295,2.5328,2.533,2.5392,2.5395,2.5468,2.5397,2.5418,2.5484,2.5491,2.5596,2.5476,2.5569,2.5573,2.5561,2.5809,2.5851,2.6035,2.5726,2.573,2.5733,0,2.5159,2.5208,2.537,2.5394,2.5424,2.5497,2.5553,2.5613,2.5649,2.5646,2.5686,2.5653,2.5747,2.5656,2.5786,2.5705,2.5742,2.5751,2.5757,2.5765,2.5663,2.5824,2.6093,2.6121,2.5773,2.5769,2.5767,0,2.5336,2.5443,2.5553,2.5575,2.5607,2.566,2.5677,2.5707,2.5747,2.5797,2.5822,2.5884,2.5918,2.5966,2.5951,2.5886,2.6085,2.5993,2.6086,2.6087,2.6131,2.6129,2.6411,2.6155,2.6155,2.6154,2.6154,0,2.5554,2.5655,2.5632,2.57,2.5812,2.5783,2.5895,2.5904,2.5932,2.6001,2.5954,2.602,2.5996,2.6062,2.6051,2.6161,2.6177,2.6178,2.6174,2.6182,2.6182,2.6206,2.6193,2.6161,2.616,2.6158,2.6157,0,2.5771,2.5759,2.5875,2.5896,2.5903,2.5985,2.6003,2.6067,2.6065,2.6154,2.6173,2.6171,2.6246,2.6235,2.6319,2.6312,2.6449,2.6429,2.6436,2.6432,2.6526,2.6517,2.6833,2.6873,2.6592,2.6595,2.6597,0,2.591,2.5986,2.6014,2.6056,2.6075,2.6145,2.6184,2.616,2.6203,2.625,2.6309,2.6379,2.6433,2.6556,2.6563,2.6627,2.6609,2.6715,2.6618,2.6624,2.661,2.6606,2.6614,2.6734,2.6738,2.674,2.6742,0,2.6159,2.6149,2.6207,2.6264,2.6313,2.6357,2.6397,2.6434,2.6413,2.6465,2.654,2.6582,2.6667,2.6738,2.6798,2.6816,2.6777,2.6773,2.6798,2.6807,2.6808,2.6808,2.6488,2.6766,2.6763,2.6762,2.676,2.6759,2.6341,2.6405,2.6435,2.6501,2.6528,2.6566,2.6627,2.6632,2.6694,2.6759,2.6742,2.6827,2.6861,2.6937,2.6961,2.7029,2.699,2.7026,2.7035,2.7045,2.7056,2.6797,2.704,2.7039,2.7038,2.7038,2.7037,0,2.6586,2.6602,2.6664,2.672,2.6773,2.6729,2.677,2.6818,2.6893,2.6927,2.6981,2.7068,2.7136,2.7148,2.7213,2.7264,2.7248,2.7282,2.7278,2.7283,2.7087,2.7058,2.7294,2.7294,2.7294,2.7294,2.7294,2.7294,2.672,2.6827,2.6821,2.6941,2.6957,2.7038,2.7066,2.7101,2.7128,2.7226,2.7281,2.7288,2.7314,2.738,2.7441,2.7443,2.747,2.7511,2.7506,2.7323,2.7297,2.7273,2.7246,2.7517,2.7517,2.7697,2.7698,2.77]},{"header":{"parameterUnit":"m.s-1","parameterCategory":1,"la1":30.2991,"la2":30.254,"lo1":-89.0895,"lo2":-89.0444,"dy":0.0017,"dx":0.0017,"nx":28,"ny":28,"refTime":"2024-05-27T03:00:00:Z","depth":0,"parameterNumber":3,"parameterNumberName":"V-component_of_WINDS"},"data":[0,0,0,0,0,0,0,0,0,0,0,0,0,0,0,0,0,0,0,0,0,0,0,0,0,0,0,0,0,0,0,0,0,0,0,0,0,0,0,0,0,0,0,0,0,0,0,0,0,0,0,0,0,0,0,0,0,0,3.4914,3.4915,0,3.5038,3.504,3.5041,3.5019,3.5016,3.5014,3.5012,3.5135,3.514,3.5146,0,0,0,0,0,0,0,0,0,0,0,0,0,3.4652,3.4657,3.4914,3.4915,3.4917,3.5038,3.504,3.5042,3.5019,3.5016,3.5014,3.5011,3.5133,3.514,3.5146,0,0,0,0,0,0,0,0,0,0,0,0,0,3.477,3.4658,3.4913,3.492,3.4922,3.5038,3.504,3.5042,3.502,3.5016,3.5013,3.501,3.5131,3.5139,3.5147,3.5262,0,0,3.5171,3.5175,0,0,0,0,0,0,0,0,3.4763,3.4779,3.4918,3.492,3.4922,3.501,3.4993,3.5116,3.502,3.4982,3.5012,3.5008,3.5096,3.5107,3.5137,3.5268,3.5273,3.5172,3.5177,3.518,3.5183,0,0,0,0,0,0,0,3.4755,3.4774,3.4963,3.492,3.4923,3.4916,3.4929,3.5016,3.5056,3.4985,3.4984,3.4999,3.5096,3.5129,3.514,3.5275,3.5172,3.5179,3.5184,3.5187,3.5507,3.5511,0,0,0,0,0,0,3.4745,3.4767,3.4959,3.4967,3.4833,3.4923,3.4938,3.4985,3.5055,3.5063,3.5002,3.4998,3.5117,3.513,3.5144,3.5284,3.518,3.5188,3.5192,3.5503,3.5508,3.5512,0,0,0,0,0,0,3.474,3.4763,3.4954,3.4867,3.4891,3.4931,3.4984,3.4989,3.5022,3.5068,3.5074,3.5029,3.5115,3.5133,3.5233,3.5288,3.5191,3.5199,3.5499,3.5505,3.551,3.5564,0,0,0,0,0,0,3.4732,3.4761,3.4806,3.4868,3.4895,3.5043,3.4988,3.4994,3.5037,3.5032,3.5094,3.5101,3.5114,3.5222,3.5241,3.5297,3.5205,3.5494,3.5502,3.5508,3.5558,3.5571,3.5582,0,0,0,0,0,3.4723,3.4815,3.4808,3.4832,3.4953,3.5046,3.5061,3.5075,3.5041,3.5086,3.5115,3.5099,3.5279,3.5232,3.5254,3.5313,3.5491,3.5499,3.5508,3.5552,3.5568,3.5582,0,0,0,0,0,0,3.4757,3.4823,3.4817,3.4932,3.4984,3.5042,3.5099,3.5092,3.5153,3.5146,3.516,3.5174,3.5276,3.5304,3.5252,3.5428,3.538,3.5393,3.5406,3.5422,3.5434,3.5424,3.5212,0,0,0,0,0,3.4778,3.485,3.4903,3.5,3.5026,3.5059,3.5099,3.5106,3.5159,3.5181,3.5217,3.5268,3.5336,3.538,3.5445,3.5562,3.5574,3.5613,3.5625,3.5635,3.5646,3.5709,3.5727,3.5539,3.5539,3.5539,0,0,3.4822,3.4867,3.4911,3.5008,3.5048,3.5121,3.5077,3.5155,3.5209,3.5192,3.529,3.5319,3.5376,3.5486,3.5535,3.5512,3.5701,3.5645,3.5653,3.5659,3.5719,3.5737,3.5753,3.5545,3.5544,3.5543,0,0,3.4939,3.4981,3.5066,3.5108,3.5171,3.5192,3.5213,3.5273,3.5291,3.539,3.5379,3.5442,3.5559,3.5601,3.5637,3.5771,3.5758,3.5791,3.5855,3.5916,3.5931,3.5944,3.5992,3.6008,3.5802,3.5802,3.5802,0,3.4985,3.5095,3.511,3.519,3.5233,3.5223,3.5308,3.5348,3.5428,3.5457,3.543,3.5577,3.5615,3.5734,3.5767,3.5797,3.5819,3.5784,3.5928,3.5941,3.5954,3.5999,3.6017,3.5806,3.5805,3.5805,3.5805,0,3.5149,3.5225,3.5286,3.5366,3.5415,3.5498,3.5524,3.5571,3.5574,3.5597,3.5697,3.5743,3.5817,3.5846,3.5848,3.5965,3.5949,3.5925,3.5877,3.5975,3.6018,3.6035,3.5811,3.581,3.5809,3.5808,0,0,3.529,3.5378,3.54,3.5436,3.5505,3.5564,3.5645,3.5719,3.576,3.5816,3.5884,3.5983,3.5962,3.6003,3.601,3.6064,3.6167,3.6034,3.6035,3.6057,3.6298,3.6315,3.6335,3.6159,3.6162,3.6165,3.6293,0,3.5413,3.5559,3.5575,3.5704,3.5775,3.5767,3.5837,3.5887,3.5911,3.5973,3.5999,3.6069,3.6036,3.6061,3.6114,3.6143,3.6215,3.6134,3.6221,3.6224,3.6207,3.6357,3.6376,3.6494,3.631,3.6313,3.6315,0,3.5577,3.5639,3.5776,3.5836,3.5866,3.593,3.5999,3.6059,3.6114,3.6128,3.6175,3.6175,3.6257,3.6206,3.6319,3.6264,3.63,3.632,3.6325,3.6333,3.6275,3.6369,3.6532,3.655,3.6341,3.6339,3.6337,0,3.5666,3.5784,3.5881,3.5912,3.5984,3.6029,3.6061,3.6114,3.6157,3.6217,3.6245,3.6314,3.6351,3.6403,3.642,3.6382,3.6533,3.6483,3.6546,3.6545,3.6578,3.6575,3.6749,3.6602,3.6602,3.6601,3.6601,0,3.5802,3.5886,3.5922,3.5982,3.6076,3.6093,3.6184,3.6214,3.6261,3.6325,3.6321,3.6381,3.6401,3.6465,3.6479,3.657,3.6587,3.6599,3.6602,3.66,3.6598,3.6624,3.6616,3.6606,3.6605,3.6604,3.6603,0,3.5917,3.5945,3.605,3.6111,3.6128,3.6194,3.6245,3.6302,3.6325,3.6407,3.6427,3.6463,3.6537,3.6561,3.6649,3.6659,3.6766,3.6761,3.6748,3.6748,3.6809,3.6803,3.7005,3.7032,3.6867,3.6869,3.687,0,3.6001,3.6066,3.6134,3.6178,3.6212,3.6282,3.6327,3.6346,3.6393,3.6461,3.651,3.6584,3.6644,3.6763,3.6796,3.6864,3.6861,3.6927,3.6871,3.6866,3.6861,3.6857,3.6864,3.6937,3.6939,3.694,3.6941,0,3.6149,3.616,3.6225,3.6297,3.6351,3.6407,3.6462,3.6497,3.6524,3.6576,3.6653,3.67,3.6792,3.6865,3.6934,3.6965,3.6958,3.6959,3.6977,3.6975,3.6964,3.6971,3.6776,3.6954,3.6953,3.6952,3.6951,3.695,3.6251,3.6308,3.6365,3.6439,3.6482,3.6533,3.659,3.6621,3.6687,3.6764,3.6771,3.6854,3.6907,3.7,3.7034,3.7098,3.7079,3.7105,3.7112,3.7118,3.7123,3.6955,3.7111,3.711,3.711,3.711,3.711,0,3.6398,3.6434,3.6502,3.6579,3.6637,3.6627,3.6686,3.6735,3.6808,3.686,3.692,3.7008,3.7079,3.7118,3.7189,3.7233,3.7231,3.725,3.7247,3.7254,3.7136,3.7113,3.7251,3.7251,3.7251,3.7251,3.7251,3.7251,3.6481,3.6578,3.6595,3.6713,3.6748,3.6831,3.6866,3.6913,3.6954,3.7054,3.7113,3.7139,3.7185,3.726,3.7324,3.7333,3.7359,3.7381,3.7388,3.7277,3.7263,3.7249,3.7228,3.7387,3.7387,3.7501,3.7503,3.7503]}]]